Decatur, AL

12:22 PM CDT on May 23, 2017 (GMT -0500)
Pryor Regional

Weather History for KDCU - August, 2014

Change the Weather History Date:

Wednesday, August 13, 2014

  Actual Average Record
Temperature  
Mean Temperature 70 °F -  
Max Temperature 84 °F 88 °F 102 °F (1954)
Min Temperature 57 °F 64 °F 51 °F (2004)
Cooling Degree Days 4    
Growing Degree Days 20 (Base 50)    
Moisture  
Dew Point 58 °F    
Average Humidity 69    
Maximum Humidity 93    
Minimum Humidity 42    
Precipitation  
Precipitation 0.00 in - - ()
Sea Level Pressure  
Sea Level Pressure 30.03 in    
Wind  
Wind Speed 4 mph (NNE)    
Max Wind Speed 14 mph    
Max Gust Speed 18 mph    
Visibility 10 miles    
Events      
Averages and records for this station are not official NWS values.
T = Trace of Precipitation, MM = Missing Value Source: NWS Daily Summary

Daily Weather History Graph

Daily Weather History Graph

Search for Another Location

Airport or City:

Trip Planner

Search our weather history database for the weather conditions in past years. The results will help you decide how hot, cold, wet, or windy it might be!

Date:

Astronomy

Aug. 13, 2014 Rise Set
Actual Time 6:06 AM CDT 7:37 PM CDT
Civil Twilight 5:40 AM CDT 8:04 PM CDT
Nautical Twilight 5:07 AM CDT 8:36 PM CDT
Astronomical Twilight 4:34 AM CDT 9:10 PM CDT
Moon 9:34 PM CDT (8/13) 9:23 AM CDT (8/13)
Length of Visible Light 14h 24m
Length of Day
13h 30m
Waning Gibbous, 87% of the Moon is Illuminated
Aug 13
Waning Gibbous
Aug 17
Last Quarter
Aug 25
New
Sep 2
First Quarter
Sep 8
Full

Hourly Weather History & Observations

Time (CDT) Temp. Heat Index Dew Point Humidity Pressure Visibility Wind Dir Wind Speed Gust Speed Precip Events Conditions
1:53 AM 64.9 °F - 60.1 °F 84% 29.98 in 10.0 mi NE 3.5 mph - N/A   Clear
2:53 AM 62.1 °F - 60.1 °F 93% 29.99 in 10.0 mi Calm Calm - N/A   Clear
3:53 AM 60.1 °F - 57.9 °F 93% 30.00 in 10.0 mi Calm Calm - N/A   Clear
4:53 AM 60.1 °F - 57.9 °F 93% 30.01 in 10.0 mi Calm Calm - N/A   Clear
5:53 AM 57.9 °F - 55.9 °F 93% 30.02 in 10.0 mi Calm Calm - N/A   Clear
7:53 AM 66.0 °F - 61.0 °F 84% 30.06 in 10.0 mi North 6.9 mph - N/A   Clear
8:53 AM 71.1 °F - 60.1 °F 68% 30.08 in 10.0 mi NNE 4.6 mph - N/A   Clear
10:53 AM 78.1 °F - 55.9 °F 46% 30.08 in 10.0 mi North 11.5 mph - N/A   Partly Cloudy
11:53 AM 79.0 °F - 57.0 °F 47% 30.07 in 10.0 mi NE 9.2 mph - N/A   Partly Cloudy
12:53 PM 81.0 °F 81.0 °F 57.0 °F 44% 30.06 in 10.0 mi North 9.2 mph 18.4 mph N/A   Partly Cloudy
1:53 PM 82.9 °F 82.6 °F 57.9 °F 42% 30.04 in 10.0 mi Variable 6.9 mph - N/A   Partly Cloudy
3:53 PM 82.0 °F 82.0 °F 57.9 °F 44% 30.02 in 10.0 mi NNE 10.4 mph 16.1 mph N/A   Scattered Clouds
4:53 PM 82.9 °F 82.6 °F 57.9 °F 42% 30.01 in 10.0 mi NNE 13.8 mph - N/A   Mostly Cloudy
5:53 PM 81.0 °F 81.0 °F 57.0 °F 44% 30.02 in 10.0 mi North 12.7 mph 17.3 mph N/A   Clear
6:53 PM 77.0 °F - 57.9 °F 52% 30.02 in 10.0 mi North 5.8 mph - N/A   Clear
7:53 PM 69.1 °F - 61.0 °F 75% 30.03 in 10.0 mi NNE 3.5 mph - N/A   Clear
8:53 PM 66.0 °F - 60.1 °F 81% 30.04 in 10.0 mi Calm Calm - N/A   Clear
9:53 PM 62.1 °F - 59.0 °F 90% 30.06 in 10.0 mi NNE 3.5 mph - N/A   Clear
11:53 PM 61.0 °F - 59.0 °F 93% 30.06 in 10.0 mi North 3.5 mph - N/A   Clear